User: anonymous   Login
Location: Starry Hill Observatory
(46.8582°N, 122.3590°W)
Time: 04:56:47
(UTC-08:00)
Language:

Cosmos 1300 Rocket - Orbit

View from above orbital plane
View from above orbital plane
View from above satellite
View from above satellite

Ground track
Ground track

The orbit data is extracted from the following two-line orbital elements,

1 12786U 81082B   16044.15084870  .00000248  00000-0  26435-4 0  9999
2 12786  82.4862  69.5333 0019151  74.0498 286.2826 14.84582340862104
Epoch (UTC): 13 February 2016 03:37:13
Eccentricity: 0.0019151
inclination: 82.4862°
perigee height: 601 km
apogee height: 628 km
right ascension of ascending node: 69.5333°
argument of perigee: 74.0498°
revolutions per day: 14.84582340
mean anomaly at epoch: 286.2826°
orbit number at epoch: 86210

The dashed part of the orbit path shows where the satellite is in the earth's shadow,  

DLR